Location: Putah Creek Observatory
(38.7021°N, 122.3865°W)
Time: 07:30:04
(UTC-07:00)

Cosmos 1242 Rocket - Pass Details

Date: 27 May 2018
Orbit: 451 x 490 km, 81.2° (Epoch: 22 September)

Event Time Altitude Azimuth Distance (km) Brightness Sun altitude
Rises 21:47:03 0° 340° (NNW) 2,550 7.4 -13.8°
Reaches altitude 10° 21:49:20 10° 330° (NNW) 1,659 6.5 -14.1°
Maximum altitude 21:52:33 30° 267° (W) 866 4.3 -14.6°
Drops below altitude 10° 21:55:42 10° 204° (SSW) 1,625 5.0 -15.0°
Enters shadow 21:56:24 - 200° (SSW) 1,885 5.3 -15.1°
